Location: Étang Rond
(42.7927°N, 1.0661°E)
Time: 17:48:58
(UTC+00:00)

Gbstr 26 Del rocket - Visible Passes

Search period start: 09 February 2026 00:00
Search period end: 19 February 2026 00:00
Orbit: 490 x 1217 km, 51.8° (Epoch: 9 February)

Date Brightness Start Highest point End Pass type
(mag) Time Alt. Az. Time Alt. Az. Time Alt. Az.
9 Feb 5.6 03:40:42 28° SE 03:40:42 28° SE 03:43:31 10° SE visible
9 Feb 5.4 05:22:46 20° SW 05:22:46 20° SW 05:27:02 10° SSW visible
9 Feb 5.9 18:26:04 10° SE 18:28:24 12° ESE 18:28:47 12° ESE visible
9 Feb 5.2 20:06:56 10° SSW 20:10:52 35° S 20:10:52 35° S visible
10 Feb 6.1 03:29:41 17° SE 03:29:41 17° SE 03:31:01 10° SE visible
10 Feb 5.7 05:11:46 16° SW 05:11:46 16° SW 05:14:09 10° SSW visible
10 Feb 5.8 18:12:43 10° SE 18:15:45 13° ESE 18:17:51 12° E visible
10 Feb 4.6 19:54:21 10° SSW 19:59:56 51° SSE 19:59:56 51° SSE visible
10 Feb 6.5 21:40:48 10° WSW 21:42:00 16° W 21:42:00 16° W visible
11 Feb 6.1 05:00:51 11° SSW 05:00:51 11° SSW 05:01:12 10° SSW visible
11 Feb 5.8 17:59:34 10° SSE 18:03:06 15° ESE 18:06:50 10° E visible
11 Feb 4.2 19:41:47 10° SW 19:48:31 60° SE 19:48:54 60° ESE visible
11 Feb 6.1 21:28:23 10° W 21:30:58 24° W 21:30:58 24° W visible
12 Feb 5.7 17:46:32 10° SSE 17:50:27 16° ESE 17:54:39 10° E visible
12 Feb 4.2 19:29:13 10° SW 19:35:57 65° SE 19:37:44 50° E visible
12 Feb 5.7 21:15:58 10° W 21:19:47 33° W 21:19:47 33° W visible
13 Feb 4.2 19:16:41 10° SW 19:23:23 70° SE 19:26:27 38° ENE visible
13 Feb 5.3 21:03:33 10° W 21:08:30 42° WNW 21:08:30 42° WNW visible
14 Feb 4.2 19:04:10 10° SW 19:10:49 74° SE 19:15:03 29° ENE visible
14 Feb 5.0 20:51:08 10° W 20:57:05 49° NW 20:57:05 49° NW visible
14 Feb 6.9 22:39:07 10° WNW 22:39:08 10° WNW 22:39:08 10° WNW visible
15 Feb 4.2 18:51:38 10° SW 18:58:15 79° SE 19:03:31 22° ENE visible
15 Feb 4.9 20:38:43 10° W 20:45:33 50° NNW 20:45:33 50° NNW visible
15 Feb 6.7 22:26:39 10° WNW 22:27:35 14° WNW 22:27:35 14° WNW visible
16 Feb 4.2 18:39:08 10° SW 18:45:42 84° SE 18:51:54 17° ENE visible
16 Feb 4.9 20:26:18 10° W 20:33:11 49° NNW 20:33:55 47° N visible
16 Feb 6.5 22:14:11 10° WNW 22:15:57 18° WNW 22:15:57 18° WNW visible
17 Feb 4.2 18:26:38 10° SW 18:33:08 89° SSE 18:40:11 13° ENE visible
17 Feb 5.0 20:13:53 10° W 20:20:42 47° NNW 20:22:12 42° NNE visible
17 Feb 6.3 22:01:42 10° WNW 22:04:14 22° NW 22:04:14 22° NW visible
18 Feb 4.3 18:14:08 10° WSW 18:20:35 86° NNW 18:28:12 10° ENE visible
18 Feb 5.0 20:01:28 10° W 20:08:12 46° N 20:10:25 37° NNE visible
18 Feb 6.1 21:49:13 10° WNW 21:52:26 26° NW 21:52:26 26° NW visible
